Ionia, MI

1:22 PM EDT on June 28, 2017 (GMT -0400)
Ionia

Weather History for KY70 - March, 2013

Change the Weather History Date:

Saturday, March 23, 2013

  Actual Average (KGRR) Record (KGRR)
Temperature  
Mean Temperature 29 °F -  
Max Temperature 35 °F 46 °F 74 °F (1907)
Min Temperature 23 °F 26 °F 4 °F (1983)
Degree Days  
Heating Degree Days 36    
Moisture  
Dew Point 24 °F    
Average Humidity 81    
Maximum Humidity 95    
Minimum Humidity 65    
Precipitation  
Precipitation 0.00 in - - ()
Sea Level Pressure  
Sea Level Pressure 30.06 in    
Wind  
Wind Speed 4 mph (NNW)    
Max Wind Speed 8 mph    
Max Gust Speed -    
Visibility 10 miles    
Events      
Averages and records for this station are not official NWS values.
T = Trace of Precipitation, MM = Missing Value Source: NWS Daily Summary

Daily Weather History Graph

Daily Weather History Graph

Search for Another Location

Airport or City:

Trip Planner

Search our weather history database for the weather conditions in past years. The results will help you decide how hot, cold, wet, or windy it might be!

Date:

Astronomy

Mar. 23, 2013 Rise Set
Actual Time 7:37 AM EDT 7:56 PM EDT
Civil Twilight 7:09 AM EDT 8:24 PM EDT
Nautical Twilight 6:36 AM EDT 8:58 PM EDT
Astronomical Twilight 6:02 AM EDT 9:32 PM EDT
Moon 4:17 PM EDT (3/23) 5:18 AM EDT (3/23)
Length of Visible Light 13h 15m
Length of Day
12h 18m
Waxing Gibbous, 85% of the Moon is Illuminated
Mar 23
Waxing Gibbous
Mar 27
Full
Apr 3
Last Quarter
Apr 10
New
Apr 18
First Quarter

Hourly Weather History & Observations

Time (EDT) Temp. Windchill Dew Point Humidity Pressure Visibility Wind Dir Wind Speed Gust Speed Precip Events Conditions
12:14 AM 27.3 °F 23.4 °F 23.0 °F 84% 30.02 in 10.0 mi WNW 3.5 mph - N/A   Clear
12:34 AM 27.1 °F 20.7 °F 22.8 °F 84% 30.02 in 7.0 mi WNW 5.8 mph - N/A   Clear
12:54 AM 27.0 °F 21.6 °F 22.8 °F 84% 30.03 in 10.0 mi West 4.6 mph - N/A   Clear
1:14 AM 26.8 °F 21.4 °F 23.0 °F 86% 30.03 in 10.0 mi West 4.6 mph - N/A   Clear
1:34 AM 26.4 °F 19.8 °F 22.6 °F 86% 30.02 in 7.0 mi West 5.8 mph - N/A   Clear
1:54 AM 26.4 °F 20.9 °F 22.8 °F 86% 30.03 in 10.0 mi West 4.6 mph - N/A   Clear
2:14 AM 25.9 °F 19.2 °F 22.5 °F 87% 30.03 in 10.0 mi West 5.8 mph - N/A   Clear
2:34 AM 25.7 °F 20.1 °F 22.3 °F 87% 30.03 in 10.0 mi WNW 4.6 mph - N/A   Clear
2:54 AM 25.3 °F 19.7 °F 22.3 °F 88% 30.03 in 10.0 mi WNW 4.6 mph - N/A   Clear
3:14 AM 24.8 °F 20.5 °F 21.9 °F 89% 30.03 in 10.0 mi WNW 3.5 mph - N/A   Clear
3:34 AM 24.3 °F 18.4 °F 21.9 °F 91% 30.02 in 10.0 mi NW 4.6 mph - N/A   Clear
3:54 AM 24.1 °F 18.2 °F 21.6 °F 90% 30.02 in 10.0 mi WNW 4.6 mph - N/A   Clear
4:14 AM 23.9 °F 19.5 °F 21.7 °F 91% 30.02 in 10.0 mi WNW 3.5 mph - N/A   Clear
4:34 AM 24.6 °F 20.3 °F 22.3 °F 91% 30.02 in 10.0 mi WNW 3.5 mph - N/A   Mostly Cloudy
4:54 AM 25.7 °F 21.5 °F 23.0 °F 89% 30.02 in 10.0 mi West 3.5 mph - N/A   Overcast
5:14 AM 26.2 °F 22.1 °F 23.0 °F 88% 30.03 in 10.0 mi West 3.5 mph - N/A   Overcast
5:34 AM 27.0 °F 23.0 °F 23.7 °F 88% 30.03 in 10.0 mi WNW 3.5 mph - N/A   Overcast
5:54 AM 27.0 °F - 23.9 °F 88% 30.03 in 10.0 mi Calm Calm - N/A   Overcast
6:14 AM 26.6 °F - 23.5 °F 88% 30.03 in 10.0 mi Calm Calm - N/A   Overcast
6:34 AM 27.3 °F 22.0 °F 24.1 °F 88% 30.04 in 10.0 mi North 4.6 mph - N/A   Overcast
6:54 AM 27.9 °F 22.6 °F 24.4 °F 87% 30.04 in 10.0 mi NE 4.6 mph - N/A   Overcast
7:14 AM 28.4 °F 22.2 °F 23.9 °F 83% 30.04 in 10.0 mi NNE 5.8 mph - N/A   Overcast
7:34 AM 28.4 °F 23.3 °F 24.1 °F 84% 30.04 in 10.0 mi NNE 4.6 mph - N/A   Overcast
7:54 AM 28.9 °F - 23.9 °F 81% 30.05 in 10.0 mi Calm Calm - N/A   Overcast
8:14 AM 28.9 °F - 23.7 °F 81% 30.06 in 10.0 mi Calm Calm - N/A   Overcast
8:34 AM 29.1 °F 25.4 °F 23.9 °F 81% 30.06 in 10.0 mi North 3.5 mph - N/A   Overcast
8:54 AM 29.5 °F 23.4 °F 24.3 °F 81% 30.06 in 10.0 mi NNE 5.8 mph - N/A   Overcast
9:14 AM 29.7 °F 22.8 °F 23.9 °F 79% 30.07 in 10.0 mi NNE 6.9 mph - N/A   Overcast
9:34 AM 29.8 °F 23.9 °F 24.3 °F 80% 30.07 in 10.0 mi NNE 5.8 mph - N/A   Overcast
9:54 AM 30.0 °F 23.2 °F 24.3 °F 79% 30.07 in 10.0 mi NNE 6.9 mph - N/A   Overcast
10:14 AM 30.2 °F 24.3 °F 24.1 °F 78% 30.07 in 10.0 mi NNE 5.8 mph - N/A   Overcast
10:34 AM 30.2 °F 25.4 °F 23.9 °F 77% 30.08 in 10.0 mi North 4.6 mph - N/A   Overcast
10:54 AM 30.2 °F 24.3 °F 23.9 °F 77% 30.08 in 10.0 mi North 5.8 mph - N/A   Overcast
11:14 AM 30.2 °F - 23.4 °F 76% 30.09 in 10.0 mi Calm Calm - N/A   Overcast
11:34 AM 30.2 °F - 23.0 °F 75% 30.10 in 10.0 mi Calm Calm - N/A   Overcast
11:54 AM 30.7 °F - 23.4 °F 74% 30.10 in 10.0 mi Calm Calm - N/A   Overcast
12:14 PM 31.3 °F - 23.2 °F 72% 30.11 in 10.0 mi Calm Calm - N/A   Overcast
12:34 PM 31.5 °F - 23.4 °F 72% 30.11 in 10.0 mi Calm Calm - N/A   Overcast
12:54 PM 31.8 °F 26.2 °F 23.7 °F 72% 30.11 in 10.0 mi WNW 5.8 mph - N/A   Overcast
1:14 PM 32.0 °F - 23.7 °F 71% 30.11 in 10.0 mi Calm Calm - N/A   Overcast
1:34 PM 32.0 °F 25.6 °F 24.4 °F 74% 30.10 in 10.0 mi NW 6.9 mph - N/A   Overcast
1:54 PM 32.0 °F 26.4 °F 24.4 °F 74% 30.09 in 10.0 mi West 5.8 mph - N/A   Overcast
2:14 PM 32.0 °F 24.8 °F 24.4 °F 74% 30.09 in 10.0 mi North 8.1 mph - N/A   Overcast
2:34 PM 32.0 °F 27.5 °F 24.6 °F 74% 30.09 in 10.0 mi North 4.6 mph - N/A   Overcast
2:54 PM 32.0 °F 28.7 °F 24.4 °F 74% 30.09 in 10.0 mi West 3.5 mph - N/A   Overcast
3:14 PM 32.2 °F 27.7 °F 24.4 °F 73% 30.09 in 10.0 mi NW 4.6 mph - N/A   Overcast
3:34 PM 32.4 °F - 24.6 °F 73% 30.08 in 10.0 mi Calm Calm - N/A   Overcast
3:54 PM 32.9 °F 28.5 °F 24.8 °F 72% 30.07 in 10.0 mi NNE 4.6 mph - N/A   Overcast
4:14 PM 32.9 °F - 24.1 °F 70% 30.07 in 10.0 mi Calm Calm - N/A   Overcast
4:34 PM 33.3 °F 30.2 °F 23.5 °F 68% 30.07 in 7.0 mi NNW 3.5 mph - N/A   Overcast
4:54 PM 33.8 °F - 24.1 °F 68% 30.07 in 10.0 mi Calm Calm - N/A   Overcast
5:14 PM 33.4 °F 30.4 °F 24.1 °F 69% 30.07 in 10.0 mi East 3.5 mph - N/A   Overcast
5:34 PM 33.8 °F - 23.7 °F 67% 30.07 in 10.0 mi Calm Calm - N/A   Overcast
5:54 PM 34.2 °F - 23.5 °F 65% 30.07 in 10.0 mi Calm Calm - N/A   Overcast
6:14 PM 35.2 °F 31.2 °F 25.2 °F 67% 30.06 in 10.0 mi East 4.6 mph - N/A   Overcast
6:34 PM 33.8 °F 30.8 °F 25.5 °F 72% 30.06 in 10.0 mi SE 3.5 mph - N/A   Overcast
6:54 PM 33.4 °F 29.1 °F 25.5 °F 73% 30.06 in 10.0 mi SSE 4.6 mph - N/A   Overcast
7:14 PM 32.5 °F 27.1 °F 25.7 °F 76% 30.06 in 10.0 mi SSE 5.8 mph - N/A   Overcast
7:34 PM 32.2 °F 27.7 °F 26.6 °F 80% 30.06 in 10.0 mi SSE 4.6 mph - N/A   Mostly Cloudy
7:54 PM 32.0 °F 28.7 °F 27.5 °F 83% 30.06 in 10.0 mi SSE 3.5 mph - N/A   Scattered Clouds
8:14 PM 30.2 °F 24.3 °F 25.7 °F 83% 30.06 in 10.0 mi SE 5.8 mph - N/A   Clear
8:34 PM 30.2 °F 25.4 °F 25.3 °F 82% 30.06 in 10.0 mi SE 4.6 mph - N/A   Clear
8:54 PM 29.8 °F 24.9 °F 26.4 °F 87% 30.06 in 10.0 mi SE 4.6 mph - N/A   Clear
9:14 PM 28.9 °F 22.8 °F 25.3 °F 86% 30.05 in 10.0 mi East 5.8 mph - N/A   Clear
9:34 PM 28.2 °F 22.0 °F 24.4 °F 86% 30.06 in 10.0 mi ESE 5.8 mph - N/A   Clear
9:54 PM 28.0 °F 22.8 °F 23.7 °F 84% 30.05 in 10.0 mi SE 4.6 mph - N/A   Clear
10:14 PM 28.2 °F 24.4 °F 23.9 °F 84% 30.06 in 10.0 mi ESE 3.5 mph - N/A   Clear
10:34 PM 28.9 °F - 24.6 °F 84% 30.05 in 10.0 mi Calm Calm - N/A   Clear
10:54 PM 28.6 °F 24.8 °F 25.5 °F 88% 30.07 in 10.0 mi SSW 3.5 mph - N/A   Clear
11:14 PM 26.4 °F - 23.9 °F 90% 30.06 in 10.0 mi Calm Calm - N/A   Clear
11:34 PM 27.0 °F - 25.2 °F 93% 30.05 in 10.0 mi Calm Calm - N/A   Clear
11:54 PM 25.2 °F 20.9 °F 23.9 °F 95% 30.04 in 10.0 mi ENE 3.5 mph - N/A   Clear